Regional Weather Roundup
Issued by NWS

Home | Current Version | Previous Version | Graphics & Text | Print | Product List | Glossary On
Versions: 1 2 3 4 5 6 7 8 9 10 11 12 13 14 15 16 17 18 19 20 21 22 23 24 25 26 27 28 29 30 31 32 33 34 35 36 37 38 39 40 41 42 43 44 45 46 47 48 49
803
ASUS45 KCYS 050610
RWRWY

WYOMING REGIONAL WEATHER ROUNDUP
NATIONAL WEATHER SERVICE CHEYENNE WY
1100 PM MST THU FEB 04 2016

NOTE:  "FAIR" INDICATES FEW OR NO CLOUDS BELOW 12,000 FEET
WITH NO SIGNIFICANT WEATHER AND/OR OBSTRUCTIONS TO VISIBILITY.

WYZ001-050700-
YELLOWSTONE NATIONAL PARK

CITY           SKY/WX    TMP DP  RH WIND       PRES   REMARKS
LK YELLOWSTONE   N/A      5   1  83 CALM      30.27R
6HR MIN TEMP:   5; 6HR MAX TEMP:  15;

W YELLOWSTONE  NOT AVBL

$$
WYZ002>013-054>058-071-098>099-050700-
NORTHERN WYOMING

CITY           SKY/WX    TMP DP  RH WIND       PRES   REMARKS
JACKSON        CLOUDY    19  16  86 W7        30.30R WCI  10
CODY           CLOUDY    30   9  40 W9G18     30.20R WCI  22
GREYBULL       CLOUDY    22  15  75 W7        30.23R WCI  13
6HR MIN TEMP:  21; 6HR MAX TEMP:  27;

WORLAND        CLOUDY    16  12  84 CALM      30.23R
6HR MIN TEMP:  15; 6HR MAX TEMP:  23;

SHERIDAN       LGT SNOW  30  26  85 NW18      30.18R WCI  18
6HR MIN TEMP:  23; 6HR MAX TEMP:  35; 6HR PCP: TRACE;

BUFFALO        CLOUDY    32  19  58 NW21G32   30.12R WCI  20
6HR MIN TEMP:  27; 6HR MAX TEMP:  36;

GILLETTE       MOCLDY    29  15  56 NW15      30.11R WCI  18
6HR MIN TEMP:  25; 6HR MAX TEMP:  31;

HULETT         CLOUDY    32  19  59 W7        30.09R WCI  26
NEWCASTLE      FAIR      27  19  74 SE5       30.12R WCI  21

$$
WYZ014>020-022>026-101>103-050700-
CENTRAL WYOMING

CITY           SKY/WX    TMP DP  RH WIND       PRES   REMARKS
BIG PINEY      FAIR      11   5  77 VRB5      30.27R WCI   3
6HR MIN TEMP:   9; 6HR MAX TEMP:  24;

PINEDALE       FAIR      10   7  85 NW16      30.26R WCI  -7
DUBOIS         MOCLDY    18   9  68 NW17G25   30.21R WCI   2
LANDER         FAIR      16   5  62 E3        30.19R
6HR MIN TEMP:  14; 6HR MAX TEMP:  32;

RIVERTON       FAIR      18   5  57 N9        30.20R WCI   7
6HR MIN TEMP:  13; 6HR MAX TEMP:  28;

CASPER         CLOUDY    22  13  68 SW22      30.17R WCI   6
6HR MIN TEMP:  21; 6HR MAX TEMP:  23;

DOUGLAS        FAIR      22  12  65 NW10      30.14R WCI  11
6HR MIN TEMP:  21; 6HR MAX TEMP:  28;


$$
WYZ021-027>030-104>119-050700-
SOUTHERN WYOMING

CITY           SKY/WX    TMP DP  RH WIND       PRES   REMARKS
EVANSTON       LGT SNOW  20  16  84 SW8       30.34R FOG     WCI  10
6HR MIN TEMP:  19; 6HR MAX TEMP:  20; 6HR PCP: TRACE;

FORT BRIDGER   MOCLDY    19  19 100 W20       30.35R WCI   4
ROCK SPRINGS   FAIR      17  12  80 W20       30.27R WCI   1
6HR MIN TEMP:  16; 6HR MAX TEMP:  21;

DIXON          FLURRIES  20  16  85 SW10      30.30S WCI   8
RAWLINS        MOCLDY    18  12  77 W23       30.19S WCI   0
6HR MIN TEMP:  17; 6HR MAX TEMP:  18; 6HR PCP: TRACE;

SARATOGA       MOCLDY    19  14  79 W17       30.21R WCI   4
LARAMIE        MOCLDY    17   7  64 W10       30.13S WCI   5
6HR MIN TEMP:  17; 6HR MAX TEMP:  20;

CHEYENNE       CLOUDY    24  13  62 W15       30.13S WCI  11
6HR MIN TEMP:  24; 6HR MAX TEMP:  28; 6HR PCP: TRACE;

TORRINGTON     CLOUDY    29  18  63 W10       30.14S WCI  20
6HR MIN TEMP:  29; 6HR MAX TEMP:  31; 6HR PCP: TRACE;

PINE BLUFFS    CLOUDY    28  19  69 NW15      30.16S WCI  17

$$




USA.gov is the U.S. government's official web portal to all federal, state and local government web resources and services.